Regional Weather Roundup
Issued by NWS

Home | Current Version | Previous Version | Graphics & Text | Print | Product List | Glossary On
Versions: 1 2 3 4 5 6 7 8 9 10 11 12 13 14 15 16 17 18 19 20 21 22 23 24 25 26 27 28 29 30 31 32 33 34 35 36 37 38 39 40 41 42 43 44 45 46 47 48 49 50
000
ASUS43 KOAX 161810
RWRNE

WEATHER ROUNDUP FOR NEBRASKA
NATIONAL WEATHER SERVICE OMAHA NE
1200 PM CST SAT DEC 16 2017

NOTES: SATELLITE DATA IS BEING USED TO AUGMENT CLOUD COVER ABOVE
       12000 FEET.
       "FAIR" INDICATES FEW OR NO CLOUDS BELOW 12,000 FEET WITH NO
       SIGNIFICANT WEATHER AND/OR OBSTRUCTIONS TO VISIBILITY.


NEZ001>004-019>022-054>056-161900-
NEBRASKA PANHANDLE

CITY           SKY/WX    TMP DP  RH WIND       PRES   REMARKS
SCOTTSBLUFF    MOSUNNY   42  24  49 NE10      29.90R
6HR MIN TEMP:  31; 6HR MAX TEMP:  42;

ALLIANCE       CLOUDY    37  27  67 NE20      29.89R WCI  27
6HR MIN TEMP:  20; 6HR MAX TEMP:  37;

CHADRON        CLOUDY    37  29  72 NE15      29.95S WCI  28
6HR MIN TEMP:  25; 6HR MAX TEMP:  38;

GORDON         CLOUDY    36  30  79 NE12      29.93R WCI  28
6HR MIN TEMP:  27; 6HR MAX TEMP:  36;

KIMBALL        CLOUDY    44  19  37 NE17G23   29.85S
SIDNEY         SUNNY     46  23  40 NE20      29.85S
6HR MIN TEMP:  27; 6HR MAX TEMP:  47;

$$

NEZ057>060-069>072-079>082-161900-
SOUTHWEST NEBRASKA

CITY           SKY/WX    TMP DP  RH WIND       PRES   REMARKS
NORTH PLATTE   CLOUDY    46  27  47 NE21G28   29.83F
6HR MIN TEMP:  27; 6HR MAX TEMP:  46;

IMPERIAL       CLOUDY    47  22  37 NE20G29   29.82S
6HR MIN TEMP:  23; 6HR MAX TEMP:  48;

LEXINGTON      CLOUDY    51  23  33 NE18      29.82S
MCCOOK         CLOUDY    53  21  28 NE18      29.79F
6HR MIN TEMP:  23; 6HR MAX TEMP:  53;

OGALLALA       CLOUDY    47  27  44 NE13      29.84F
$$

NEZ005>010-023>029-035>040-094-161900-
NORTH CENTRAL NEBRASKA

CITY           SKY/WX    TMP DP  RH WIND       PRES   REMARKS
VALENTINE      CLOUDY    40  32  73 N15       29.92R WCI  32
6HR MIN TEMP:  29; 6HR MAX TEMP:  40;

AINSWORTH      CLOUDY    39  32  76 N12       29.91R WCI  31
BROKEN BOW     CLOUDY    44  26  49 N16G24    29.85S
6HR MIN TEMP:  35; 6HR MAX TEMP:  44;

O`NEILL        CLOUDY    42  32  68 N12       29.89S
ORD            PTSUNNY   44  28  53 N17       29.85S
6HR MIN TEMP:  28; 6HR MAX TEMP:  44;

THEDFORD       CLOUDY    41  29  63 N9        29.89S
$$

NEZ041-046>049-061>064-073>077-083>087-161900-
SOUTH CENTRAL NEBRASKA

CITY           SKY/WX    TMP DP  RH WIND       PRES   REMARKS
GRAND ISLAND   CLOUDY    49  27  42 NE16      29.83F
6HR MIN TEMP:  27; 6HR MAX TEMP:  50;

AURORA         CLOUDY    50  27  40 NE15      29.83S
HASTINGS       SUNNY     52  23  32 NE18G24   29.81F
6HR MIN TEMP:  24; 6HR MAX TEMP:  52;

HEBRON         SUNNY     49  21  33 NE3       29.81F
HOLDREGE       CLOUDY    52  25  34 NE14      29.80R
KEARNEY        MOSUNNY   52  26  36 N16       29.81F
YORK           SUNNY     50  27  40 NE16      29.83S
$$

NEZ011>018-030>034-042>045-161900-
NORTHEAST NEBRASKA

CITY           SKY/WX    TMP DP  RH WIND       PRES   REMARKS
NORFOLK        CLOUDY    44  27  51 N13       29.85R
6HR MIN TEMP:  24; 6HR MAX TEMP:  45;

ALBION         CLOUDY    45  30  55 N12       29.87R
BLAIR          PTSUNNY   47  27  45 N6        29.84S
COLUMBUS       MOSUNNY   47  27  45 N12       29.86F
FREMONT        CLOUDY    47  26  45 N5        29.86S
TEKAMAH        CLOUDY    46  26  45 N9        29.85R
6HR MIN TEMP:  20; 6HR MAX TEMP:  46;

WAYNE          CLOUDY    44  27  51 N10G16    29.86R
$$

NEZ050>053-065>068-078-088>093-161900-
SOUTHEAST NEBRASKA

CITY           SKY/WX    TMP DP  RH WIND       PRES   REMARKS
LINCOLN        SUNNY     53  25  33 NE13      29.84F
6HR MIN TEMP:  25; 6HR MAX TEMP:  54;

OMAHA EPPLEY   PTSUNNY   48  25  40 N6        29.86R
6HR MIN TEMP:  29; 6HR MAX TEMP:  48;

BEATRICE       SUNNY     47  24  41 CALM      29.83S
FALLS CITY     SUNNY     51  25  36 SW10      29.84F
6HR MIN TEMP:  29; 6HR MAX TEMP:  51;

NEBRASKA CITY  SUNNY     47  25  43 SW5       29.84S
PLATTSMOUTH    SUNNY     48  24  39 N3        29.85R
$$

NEZ044-045-051>053-067-161900-
OMAHA AREA

CITY           SKY/WX    TMP DP  RH WIND       PRES   REMARKS
OMAHA EPPLEY   PTSUNNY   48  25  40 N6        29.86R
6HR MIN TEMP:  29; 6HR MAX TEMP:  48;

BLAIR          PTSUNNY   47  27  45 N6        29.84S
FREMONT        CLOUDY    47  26  45 N5        29.86S
MILLARD        MOSUNNY   49  27  41 NE3       29.85S
OFFUTT AFB     MOSUNNY   49  24  37 CALM      29.85S
PLATTSMOUTH    SUNNY     48  24  39 N3        29.85R
WAHOO          FAIR      49  25  39 N10       29.85S
$$




USA.gov is the U.S. government's official web portal to all federal, state and local government web resources and services.